Weather Roundup
Issued by NWS Chicago, IL

Home | Current Version | Previous Version | Graphics & Text | Print | Product List | Glossary On
Versions: 1 2 3 4 5 6 7 8 9 10 11 12 13 14 15 16 17 18 19 20 21 22 23 24 25 26 27 28 29 30 31 32 33 34 35 36 37 38 39 40 41 42 43 44 45 46 47 48 49 50
000
NZUS59 KLOT 011400
HRRLOT

CHICAGO AREA WEATHER ROUNDUP
NATIONAL WEATHER SERVICE CHICAGO/ROMEOVILLE IL
900 AM CDT WED JUL 01 2015

NOTE: "FAIR" INDICATES FEW OR NO CLOUDS BELOW 12,000 FEET WITH NO
SIGNIFICANT WEATHER AND/OR OBSTRUCTIONS TO VISIBILITY.

* THESE STATIONS ARE NOT UNDER NWS QUALITY CONTROL. THEY ALSO MAY NOT
  REPORT WEATHER SUCH AS PRECIPITATION OR FOG.

ILZ005-006-012>014-019>023-011500-
NORTHEAST ILLINOIS

CITY           SKY/WX    TMP DP  RH WIND       PRES   REMARKS
OHARE          PTSUNNY   59  51  75 VRB3      29.97S
MIDWAY         PTSUNNY   62  53  72 NE7       29.97S
AURORA         PTSUNNY   62  53  72 NE10      29.97R
WAUKEGAN       NOT AVBL
DUPAGE AIRPORT CLOUDY    60  53  77 NE6       29.96S
WHEELING       CLOUDY    60  52  74 CALM      29.99S
NORTHERLY IS     N/A     59  52  77 N7          N/A
$$

WIZ051-052-058>065-066-070>072-011500-
SOUTHEAST WISCONSIN

CITY           SKY/WX    TMP DP  RH WIND       PRES   REMARKS
MILWAUKEE      MOSUNNY   61  46  57 NW7       29.98S
KENOSHA*       MOSUNNY   61  51  70 VRB7      29.97S
RACINE*        SUNNY     61  49  64 NW6       29.99S
WAUKESHA       MOSUNNY   55  46  71 NW7       29.98S
$$

INZ001>003-010>013-019-020-011500-
NORTHWEST INDIANA

CITY           SKY/WX    TMP DP  RH WIND       PRES   REMARKS
GARY*          PTSUNNY   61  54  77 N8        29.97S
MICHIGAN CITY* NOT AVBL
RENSSELAER*    NOT AVBL
$$

LMZ740>746-011500-
SOUTHERN LAKE MICHIGAN

STATION/POSITION TIME  SKY/WX   TEMP WIND        PRES    VSBY
                                AIR  DIR/SP/G
                 (UTC)          (F)  (DEG/KT/KT) (MB)    (MI)
HARRISON CRIB    1300            56   10/  8/ 10   N/A
BURNHAM HARBOR   1300            57   10/  5/ 10   N/A
CALUMET HARBOR   1300            57   10/  7/ 10   N/A
BURNS HARBOR     1300            58   10/ 11/ 13 1015.2S
MICHIGAN CITY    1300            58  350/ 11/ 13   N/A
$$

ABBREVIATIONS USED IN REMARKS
   TC - TEMPERATURE IN CELSIUS
  WCI - WIND CHILL INDEX
   HX - HEAT INDEX
  VSB - VISIBILITY
$$


USA.gov is the U.S. government's official web portal to all federal, state and local government web resources and services.